Location: Unspecified
(22.6800°N, 112.2000°E)
Time: 14:12:25
(UTC+08:00)

Vanguard 2 - Visible Passes

Search period start: 31 July 2021 00:00
Search period end: 10 August 2021 00:00
Orbit: 552 x 2937 km, 32.9° (Epoch: 30 July)

Date Brightness Start Highest point End Pass type
(mag) Time Alt. Az. Time Alt. Az. Time Alt. Az.
31 Jul 7.5 03:56:36 52° ENE 03:56:36 52° ENE 03:59:58 10° ENE visible
01 Aug 7.0 04:13:24 61° NNW 04:13:26 61° NNW 04:17:44 10° ENE visible
02 Aug 7.8 04:30:11 32° NW 04:31:17 39° NNW 04:35:27 10° NE visible
03 Aug 8.4 04:46:57 17° WNW 04:49:12 29° NNW 04:53:10 10° NE visible
04 Aug 10.0 03:02:20 11° ENE 03:02:20 11° ENE 03:02:30 10° ENE visible
04 Aug 8.8 05:03:57 10° WNW 05:07:13 24° N 05:10:59 10° NE visible
05 Aug 9.5 03:19:06 17° NE 03:19:06 17° NE 03:20:10 10° NE visible
05 Aug 9.1 05:22:05 10° NW 05:25:16 22° N 05:28:59 10° NE visible
06 Aug 9.0 03:35:51 23° NNE 03:35:51 23° NNE 03:37:47 10° NE visible
06 Aug 9.2 05:40:04 10° NW 05:43:19 22° N 05:47:12 10° ENE visible
07 Aug 8.7 03:52:37 24° N 03:52:37 24° N 03:55:26 10° NE visible
08 Aug 8.8 04:09:24 20° NNW 04:10:04 21° N 04:13:12 10° NE visible
09 Aug 9.0 04:26:11 15° NW 04:28:06 20° N 04:31:08 10° NE visible
